TimeCST,TemperatureF,Dew PointF,Humidity,Sea Level PressureIn,VisibilityMPH,Wind Direction,Wind SpeedMPH,Gust SpeedMPH,PrecipitationIn,Events,Conditions,WindDirDegrees,DateUTC
12:35 AM,44.6,44.6,100,29.80,3.0,SE,5.8,-,N/A,,Overcast,130,2014-02-05 06:35:00
12:55 AM,46.4,46.4,100,29.81,7.0,SSW,5.8,-,N/A,,Overcast,200,2014-02-05 06:55:00
1:15 AM,46.4,46.4,100,29.82,7.0,South,3.5,-,N/A,,Overcast,190,2014-02-05 07:15:00
1:35 AM,46.4,46.4,100,29.83,1.8,West,6.9,-,N/A,,Overcast,260,2014-02-05 07:35:00
1:55 AM,48.2,48.2,100,29.83,2.0,West,10.4,-,N/A,,Overcast,260,2014-02-05 07:55:00
2:15 AM,48.2,46.4,93,29.84,5.0,West,10.4,-,N/A,,Overcast,280,2014-02-05 08:15:00
2:35 AM,46.4,44.6,93,29.85,10.0,West,8.1,-,N/A,,Overcast,280,2014-02-05 08:35:00
2:55 AM,44.6,44.6,100,29.86,8.0,West,13.8,-,N/A,,Overcast,260,2014-02-05 08:55:00
3:15 AM,44.6,44.6,100,29.87,10.0,West,13.8,-,N/A,,Overcast,260,2014-02-05 09:15:00
3:35 AM,42.8,42.8,100,29.88,10.0,West,12.7,-,N/A,,Overcast,260,2014-02-05 09:35:00
3:55 AM,42.8,42.8,100,29.89,10.0,West,10.4,-,N/A,,Overcast,260,2014-02-05 09:55:00
4:15 AM,42.8,42.8,100,29.89,10.0,WSW,8.1,-,N/A,,Mostly Cloudy,250,2014-02-05 10:15:00
4:35 AM,42.8,39.2,87,29.91,10.0,West,12.7,-,N/A,,Overcast,270,2014-02-05 10:35:00
4:55 AM,41.0,39.2,93,29.92,10.0,West,11.5,-,N/A,,Overcast,280,2014-02-05 10:55:00
5:15 AM,39.2,39.2,100,29.94,10.0,WNW,11.5,-,N/A,,Overcast,290,2014-02-05 11:15:00
5:35 AM,39.2,37.4,93,29.95,10.0,WNW,8.1,-,N/A,,Overcast,290,2014-02-05 11:35:00
5:55 AM,37.4,37.4,100,29.97,10.0,WNW,9.2,-,N/A,,Overcast,290,2014-02-05 11:55:00
6:15 AM,37.4,35.6,93,29.99,10.0,West,11.5,-,N/A,,Overcast,270,2014-02-05 12:15:00
6:35 AM,35.6,35.6,100,30.00,10.0,WNW,15.0,-,N/A,,Overcast,300,2014-02-05 12:35:00
6:55 AM,35.6,33.8,93,30.02,10.0,WNW,9.2,-,N/A,,Overcast,290,2014-02-05 12:55:00
7:15 AM,35.6,33.8,93,30.04,10.0,WNW,11.5,-,N/A,,Overcast,290,2014-02-05 13:15:00
7:35 AM,33.8,32.0,93,30.05,10.0,West,11.5,-,N/A,,Overcast,280,2014-02-05 13:35:00
7:55 AM,33.8,32.0,93,30.06,10.0,West,12.7,-,N/A,,Overcast,280,2014-02-05 13:55:00
8:15 AM,33.8,30.2,87,30.07,10.0,WNW,12.7,-,N/A,,Overcast,290,2014-02-05 14:15:00
8:35 AM,33.8,30.2,87,30.08,10.0,WNW,13.8,-,N/A,,Overcast,300,2014-02-05 14:35:00
8:55 AM,32.0,30.2,93,30.10,10.0,WNW,13.8,-,N/A,,Overcast,300,2014-02-05 14:55:00
9:35 AM,33.8,30.2,87,30.10,10.0,WNW,11.5,-,N/A,,Unknown,290,2014-02-05 15:35:00
9:55 AM,32.0,30.2,93,30.12,10.0,WNW,11.5,-,N/A,,Overcast,290,2014-02-05 15:55:00
10:15 AM,32.0,30.2,93,30.13,10.0,WNW,9.2,-,N/A,,Overcast,300,2014-02-05 16:15:00
10:35 AM,32.0,30.2,93,30.13,10.0,WNW,12.7,-,N/A,,Overcast,300,2014-02-05 16:35:00
10:55 AM,32.0,30.2,93,30.14,7.0,West,10.4,-,N/A,,Overcast,280,2014-02-05 16:55:00
11:15 AM,32.0,30.2,93,30.14,6.0,WNW,12.7,-,N/A,,Overcast,290,2014-02-05 17:15:00
11:35 AM,33.8,30.2,87,30.14,10.0,WNW,11.5,-,N/A,,Overcast,290,2014-02-05 17:35:00
11:55 AM,33.8,30.2,87,30.14,10.0,West,12.7,-,N/A,,Overcast,280,2014-02-05 17:55:00
12:15 PM,33.8,30.2,87,30.14,5.0,WNW,11.5,-,N/A,,Overcast,290,2014-02-05 18:15:00
12:35 PM,32.0,28.4,87,30.14,10.0,NW,11.5,-,N/A,,Overcast,310,2014-02-05 18:35:00
12:55 PM,33.8,28.4,81,30.14,10.0,NW,11.5,-,N/A,,Overcast,310,2014-02-05 18:55:00
1:15 PM,33.8,26.6,75,30.14,10.0,NW,17.3,-,N/A,,Overcast,320,2014-02-05 19:15:00
1:35 PM,32.0,28.4,87,30.15,10.0,NW,15.0,-,N/A,,Overcast,320,2014-02-05 19:35:00
1:55 PM,32.0,26.6,80,30.16,10.0,NW,11.5,-,N/A,,Overcast,310,2014-02-05 19:55:00
2:15 PM,30.2,26.6,86,30.16,10.0,NNW,13.8,-,N/A,,Overcast,330,2014-02-05 20:15:00
2:35 PM,30.2,24.8,80,30.18,10.0,NW,17.3,-,N/A,,Overcast,320,2014-02-05 20:35:00
2:55 PM,28.4,24.8,86,30.20,10.0,NNW,16.1,-,N/A,,Overcast,330,2014-02-05 20:55:00
3:15 PM,28.4,24.8,86,30.20,10.0,NNW,15.0,-,N/A,,Overcast,340,2014-02-05 21:15:00
3:35 PM,26.6,23.0,86,30.22,10.0,NW,15.0,-,N/A,,Overcast,320,2014-02-05 21:35:00
3:55 PM,26.6,23.0,86,30.24,10.0,NNW,13.8,-,N/A,,Overcast,330,2014-02-05 21:55:00
4:15 PM,26.6,21.2,80,30.24,10.0,NW,13.8,-,N/A,,Overcast,320,2014-02-05 22:15:00
4:35 PM,26.6,21.2,80,30.25,10.0,NW,12.7,-,N/A,,Overcast,320,2014-02-05 22:35:00
4:55 PM,26.6,21.2,80,30.26,10.0,NNW,15.0,-,N/A,,Overcast,330,2014-02-05 22:55:00
5:15 PM,24.8,19.4,80,30.27,10.0,North,15.0,-,N/A,,Overcast,350,2014-02-05 23:15:00
5:35 PM,24.8,19.4,80,30.28,10.0,NNW,11.5,-,N/A,,Overcast,330,2014-02-05 23:35:00
5:55 PM,24.8,19.4,80,30.29,10.0,North,12.7,-,N/A,,Overcast,350,2014-02-05 23:55:00
6:15 PM,24.8,19.4,80,30.30,10.0,NNW,13.8,-,N/A,,Overcast,340,2014-02-06 00:15:00
6:35 PM,24.8,19.4,80,30.31,10.0,NNW,10.4,-,N/A,,Overcast,340,2014-02-06 00:35:00
6:55 PM,24.8,19.4,80,30.30,10.0,North,13.8,-,N/A,,Overcast,350,2014-02-06 00:55:00
7:15 PM,24.8,19.4,80,30.32,10.0,North,11.5,-,N/A,,Overcast,360,2014-02-06 01:15:00
7:35 PM,24.8,19.4,80,30.32,10.0,NNW,9.2,-,N/A,,Overcast,340,2014-02-06 01:35:00
7:55 PM,24.8,19.4,80,30.33,10.0,NNW,11.5,-,N/A,,Overcast,340,2014-02-06 01:55:00
8:15 PM,24.8,19.4,80,30.34,10.0,NNW,11.5,-,N/A,,Overcast,340,2014-02-06 02:15:00
8:35 PM,24.8,19.4,80,30.34,10.0,NNW,11.5,-,N/A,,Overcast,340,2014-02-06 02:35:00
8:55 PM,24.8,19.4,80,30.35,10.0,NNW,8.1,-,N/A,,Overcast,340,2014-02-06 02:55:00
9:15 PM,24.8,19.4,80,30.35,10.0,North,10.4,-,N/A,,Overcast,10,2014-02-06 03:15:00
9:35 PM,24.8,19.4,80,30.35,10.0,North,10.4,-,N/A,,Overcast,10,2014-02-06 03:35:00
9:55 PM,24.8,19.4,80,30.35,10.0,North,9.2,-,N/A,,Overcast,360,2014-02-06 03:55:00
10:15 PM,24.8,19.4,80,30.35,10.0,North,8.1,-,N/A,,Overcast,350,2014-02-06 04:15:00
10:35 PM,24.8,19.4,80,30.36,10.0,North,9.2,-,N/A,,Overcast,360,2014-02-06 04:35:00
10:55 PM,24.8,19.4,80,30.35,10.0,North,8.1,-,N/A,,Overcast,350,2014-02-06 04:55:00
11:15 PM,24.8,19.4,80,30.33,10.0,North,8.1,-,N/A,,Overcast,360,2014-02-06 05:15:00
11:35 PM,24.8,19.4,80,30.34,10.0,North,13.8,-,N/A,,Overcast,360,2014-02-06 05:35:00
11:55 PM,24.8,19.4,80,30.34,10.0,North,10.4,-,N/A,,Overcast,350,2014-02-06 05:55:00